This demonstration page uses our WeatherBlox Daily Observations layout. Learn more.

Left ArrowRight Arrow

Hourly Observations for July 8, 2018

Temp ( °F °C ) Dew Point ( °F °C ) Humidity (%) Winds ( mph kmh ) Pressure ( in mb ) Visibility ( mi km ) Precip ( " mm )
12:15 am 00:15 Clear 74 23.5 65 18.6 74 74 SSE 10 17 30.03 1017 10 16 N/A
12:35 am 00:35 Clear 74 23.2 66 18.7 76 76 SSE 10 17 30.03 1017 10 16 N/A
12:55 am 00:55 Clear 73 22.7 66 18.7 78 78 SSE 9 15 30.03 1017 10 16 N/A
1:15 am 01:15 Clear 73 23 65 18.6 76 76 SSE 12 19 30.03 1017 10 16 N/A
1:35 am 01:35 Clear 73 23 65 18.5 76 76 SSE 9 15 30.03 1017 10 16 N/A
1:55 am 01:55 Clear 73 22.8 65 18.3 76 76 S 9 15 30.03 1017 10 16 N/A
2:15 am 02:15 Clear 73 22.7 65 18.2 76 76 S 10 17 30.03 1017 10 16 N/A
2:35 am 02:35 Clear 73 22.7 65 18.1 75 75 S 12 19 30.03 1017 10 16 N/A
2:55 am 02:55 Clear 73 22.5 65 18.1 76 76 S 12 19 30.03 1017 10 16 N/A
3:15 am 03:15 Clear 73 22.5 64 18 76 76 S 10 17 30.03 1017 10 16 N/A
3:35 am 03:35 Clear 73 22.5 64 18 76 76 S 13 20 30.03 1017 10 16 N/A
3:55 am 03:55 Clear 73 22.5 64 18 76 76 S 13 20 30.03 1017 10 16 N/A
4:15 am 04:15 Clear 72 22 64 18 78 78 S 10 17 30.03 1017 10 16 N/A
4:35 am 04:35 Clear 71 21.8 64 18 79 79 S 10 17 30.03 1017 10 16 N/A
4:55 am 04:55 Clear 70 21.2 64 18 82 82 S 9 15 30.03 1017 10 16 N/A
5:15 am 05:15 Clear 70 21.1 65 18.2 84 84 S 9 15 30.03 1017 10 16 N/A
5:35 am 05:35 Clear 70 20.9 65 18.1 84 84 S 9 15 30.06 1018 10 16 N/A
5:55 am 05:55 Clear 69 20.7 64 18 85 85 S 8 13 30.06 1018 10 16 N/A
6:15 am 06:15 Clear 69 20.8 64 18 84 84 S 9 15 30.06 1018 10 16 N/A
6:35 am 06:35 Sunny 69 20.7 64 18 85 85 S 9 15 30.06 1018 10 16 N/A
6:55 am 06:55 Sunny 70 21 64 18 83 83 S 8 13 30.06 1018 10 16 N/A
7:15 am 07:15 Sunny 71 21.5 65 18.3 82 82 S 3 6 30.06 1018 10 16 N/A
7:35 am 07:35 Sunny 72 22.1 65 18.4 80 80 S 7 11 30.06 1018 10 16 N/A
7:55 am 07:55 Sunny 73 22.7 65 18.6 78 78 SSE 7 11 30.03 1017 10 16 N/A
8:15 am 08:15 Sunny 74 23.3 66 19 77 77 S 9 15 30.03 1017 10 16 N/A
8:35 am 08:35 Sunny 75 23.8 66 19.1 75 75 S 13 20 30.03 1017 10 16 N/A
8:55 am 08:55 Sunny 76 24.5 66 19.1 72 72 S 13 20 30.03 1017 10 16 N/A
9:15 am 09:15 Sunny 77 25.2 67 19.4 70 70 S 14 22 30.00 1016 10 16 N/A
9:35 am 09:35 Sunny 78 25.7 67 19.7 70 70 S 9 15 30.00 1016 10 16 N/A
9:55 am 09:55 Sunny 80 26.5 69 20.3 69 69 S 10 17 30.00 1016 10 16 N/A
10:15 am 10:15 Sunny 81 27 68 20.2 66 66 SSW 14 22 30.00 1016 10 16 N/A
10:35 am 10:35 Sunny 82 27.6 69 20.5 65 65 SSW 14 22 30.00 1016 10 16 N/A
10:55 am 10:55 Sunny 82 28 68 20.2 63 63 SSW 12 19 30.00 1016 10 16 N/A
11:15 am 11:15 Sunny 83 28.6 69 20.8 63 63 SSW 12 19 29.97 1015 10 16 N/A
11:35 am 11:35 Sunny 84 29.1 69 20.8 61 61 SSW 12 19 29.97 1015 10 16 N/A
11:55 am 11:55 Sunny 85 29.5 69 20.8 60 60 S 12 19 29.97 1015 10 16 N/A
12:15 pm 12:15 Sunny 86 29.8 71 21.5 61 61 S 14 22 29.97 1015 10 16 N/A
12:35 pm 12:35 Sunny 86 30.2 69 20.6 56 56 S 15 24 29.97 1015 10 16 N/A
12:55 pm 12:55 Sunny 87 30.5 69 20.6 55 55 S 15 24 29.97 1015 10 16 N/A
1:15 pm 13:15 Sunny 87 30.6 71 21.6 59 59 S 15 24 29.94 1014 10 16 N/A
1:35 pm 13:35 Sunny 87 30.6 70 21.3 58 58 SSE 12 19 29.94 1014 10 16 N/A
1:55 pm 13:55 Sunny 87 30.8 68 20 53 53 S 17 28 29.94 1014 10 16 N/A
2:15 pm 14:15 Sunny 88 31 68 20.2 53 53 S 15 24 29.94 1014 10 16 N/A
2:35 pm 14:35 Sunny 88 31.1 69 20.6 54 54 S 16 26 29.94 1014 10 16 N/A
2:55 pm 14:55 Sunny 88 31 70 21 55 55 SSE 14 22 29.94 1014 10 16 N/A
3:15 pm 15:15 Sunny 88 31.1 71 21.5 57 57 SSE 16 26 29.94 1014 10 16 N/A
3:35 pm 15:35 Sunny 88 31.2 69 20.8 54 54 SSE 14 22 29.94 1014 10 16 N/A
3:55 pm 15:55 Sunny 88 31.2 67 19.4 49 49 SSE 18 30 29.94 1014 10 16 N/A
4:15 pm 16:15 Sunny 89 31.5 70 20.9 53 53 SSE 17 28 29.94 1014 10 16 N/A
4:35 pm 16:35 Sunny 88 31 67 19.7 51 51 SSE 17 28 29.94 1014 10 16 N/A
4:55 pm 16:55 Sunny 88 31.1 68 19.9 51 51 SSE 16 26 29.94 1014 10 16 N/A
5:15 pm 17:15 Sunny 88 31 67 19.3 50 50 SSE 17 28 29.94 1014 10 16 N/A
5:35 pm 17:35 Sunny 88 31 67 19.7 51 51 SSE 16 26 29.94 1014 10 16 N/A
5:55 pm 17:55 Sunny 87 30.8 67 19.4 51 51 SSE 16 26 29.94 1014 10 16 N/A
6:15 pm 18:15 Sunny 87 30.7 66 19 50 50 SSE 14 22 29.94 1014 10 16 N/A
6:35 pm 18:35 Sunny 87 30.4 67 19.6 52 52 SSE 15 24 29.94 1014 10 16 N/A
6:55 pm 18:55 Sunny 86 30.1 67 19.4 53 53 SSE 10 17 29.94 1014 10 16 N/A
7:15 pm 19:15 Sunny 85 29.7 67 19.7 55 55 SSE 10 17 29.94 1014 10 16 N/A
7:35 pm 19:35 Sunny 85 29.3 67 19.6 56 56 SSE 10 17 29.94 1014 10 16 N/A
7:55 pm 19:55 Sunny 83 28.5 67 19.6 59 59 SSE 10 17 29.94 1014 10 16 N/A
8:15 pm 20:15 Sunny 82 27.9 66 19 58 58 SSE 10 17 29.94 1014 10 16 N/A
8:35 pm 20:35 Sunny 80 26.9 66 18.8 61 61 SSE 9 15 29.97 1015 10 16 N/A
8:55 pm 20:55 Sunny 78 25.8 66 18.7 65 65 SSE 8 13 29.97 1015 10 16 N/A
9:15 pm 21:15 Clear 77 24.9 65 18.6 68 68 SSE 8 13 29.97 1015 10 16 N/A
9:35 pm 21:35 Clear 75 24.1 65 18.6 71 71 SSE 7 11 30.00 1016 10 16 N/A
9:55 pm 21:55 Clear 74 23.3 66 18.7 75 75 SSE 8 13 30.00 1016 10 16 N/A
10:15 pm 22:15 Clear 73 23 66 18.7 77 77 SSE 6 9 30.00 1016 10 16 N/A
10:35 pm 22:35 Clear 74 23.1 65 18.6 76 76 SSE 8 13 30.03 1017 10 16 N/A
10:55 pm 22:55 Clear 74 23.1 65 18.4 75 75 SSE 8 13 30.03 1017 10 16 N/A
11:15 pm 23:15 Clear 73 22.8 64 18 74 74 SSE 7 11 30.03 1017 10 16 N/A
11:35 pm 23:35 Clear 73 22.5 62 16.9 71 71 S 9 15 30.03 1017 10 16 N/A
11:55 pm 23:55 Clear 74 23.2 61 16.2 65 65 S 9 15 30.03 1017 10 16 N/A

Powered by AerisWeather